This is the latest recevied weather packets stored in our database for station/object HS2LXA-WX. If no packets are shown the sender has not sent any weather packets the latest 10 day(s).
| Time | Temp. | Humidity | Pressure | Rain* | Wind** | Luminosity | Snow |
|---|---|---|---|---|---|---|---|
| 1777928014 | 28.89° C | 78% | 1013.2 hPa | 0 mm | - | - | - |
| 1777927414 | 30° C | 75% | 1013.1 hPa | 0 mm | - | - | - |
| 1777926814 | 29.44° C | 76% | 1013.2 hPa | 0 mm | - | - | - |
| 1777926214 | 30° C | 74% | 1013.1 hPa | 0 mm | - | - | - |
| 1777925614 | 30° C | 75% | 1013.1 hPa | 0 mm | - | - | - |
| 1777925014 | 30° C | 74% | 1013.2 hPa | 0 mm | - | - | - |
| 1777924414 | 30.56° C | 73% | 1013.1 hPa | 0 mm | - | - | - |
| 1777923814 | 30° C | 75% | 1013.1 hPa | 0 mm | - | - | - |
| 1777923213 | 30.56° C | 73% | 1013.1 hPa | 0 mm | - | - | - |
| 1777922613 | 30.56° C | 73% | 1013.1 hPa | 0 mm | - | - | - |
| 1777921834 | 30° C | 76% | 1013.1 hPa | 0 mm | - | - | - |
| 1777921230 | 30.56° C | 73% | 1013.1 hPa | 0 mm | - | - | - |
| 1777920630 | 30.56° C | 72% | 1013.2 hPa | 0 mm | - | - | - |
| 1777920029 | 30.56° C | 72% | 1013.1 hPa | 0 mm | - | - | - |
| 1777918429 | 30.56° C | 71% | 1013.2 hPa | 0 mm | - | - | - |
| 1777917462 | 30.56° C | 72% | 1013.1 hPa | 0.51 mm | - | - | - |
| 1777916862 | 30.56° C | 70% | 1013.2 hPa | 0.51 mm | - | - | - |
| 1777916061 | 30.56° C | 70% | 1013.1 hPa | 0.25 mm | - | - | - |
| 1777915461 | 31.11° C | 69% | 1013.1 hPa | 0.25 mm | - | - | - |
| 1777914861 | 31.11° C | 69% | 1013.2 hPa | 0.25 mm | - | - | - |
| 1777914157 | 31.11° C | 68% | 1013.2 hPa | 0 mm | - | - | - |
| 1777913557 | 31.11° C | 68% | 1013.2 hPa | 2.03 mm | - | - | - |
| 1777912957 | 30.56° C | 69% | 1013.1 hPa | 2.03 mm | - | - | - |
| 1777912357 | 31.11° C | 67% | 1013.2 hPa | 1.78 mm | - | - | - |
| 1777911757 | 30.56° C | 67% | 1013.1 hPa | 1.52 mm | - | - | - |
* Rain latest hour (hover to see other rain measurements)
** Current wind speed in m/s (hover to see current wind gust speed)